Regional Weather Roundup
Issued by NWS New Orleans/Baton Rouge, LA

Home | Current Version | Previous Version | Graphics & Text | Print | Product List | Glossary On
Versions: 1 2 3 4 5 6 7 8 9 10 11 12 13 14 15 16 17 18 19 20 21 22 23 24 25 26 27 28 29 30 31 32 33 34 35 36 37 38 39 40 41 42 43 44 45 46 47 48 49 50
737
ASUS44 KLIX 271311
RWRLIX
NEW ORLEANS REGIONAL WEATHER ROUNDUP
NATIONAL WEATHER SERVICE NEW ORLEANS LA
800 AM CDT FRI MAR 27 2015

NOTE: "FAIR" INDICATES FEW OR NO CLOUDS BELOW 12,000 FEET WITH NO
      SIGNIFICANT WEATHER AND/OR OBSTRUCTIONS TO VISIBILITY.
      SKY/WX - SKY CONDITION AND SIGNIFICANT WEATHER.
      TMP - AIR TEMPERATURE.     DP    - DEWPOINT TEMPERATURE.
      RH  - RELATIVE HUMIDITY.   PRES  - PRESSURE.
      HI  - HEAT INDEX.          WCI   - WIND CHILL INDEX.

*  THESE STATIONS ARE NOT NWS OR FAA STATIONS AND ARE NOT UNDER
   NWS QUALITY CONTROL.

LAZ038-040-048-061>063-065>067-069-271400-
SOUTHEAST LOUISIANA

CITY           SKY/WX    TMP DP  RH WIND       PRES   REMARKS
N.O. AUDUBON   NOT AVBL
N.O. INTL ARPT MOSUNNY   53  43  68 N12       30.03R
N.O. LAKEFRONT PTSUNNY   55  45  68 NW17      30.03R
SLIDELL        MOSUNNY   51  45  79 N14       30.02R
BATON ROUGE    SUNNY     47  39  74 VRB3      30.08R
BOOTHVILLE     CLOUDY    56  50  80 NW15      30.00R
BELLE CHASSE   PTSUNNY   54  44  69 VRB6G20   30.02R
BOGALUSA*        N/A     49  43  81 N3        30.05R
GALLIANO*      MOSUNNY   54  47  78 NW9       30.03R
NEW ROADS*       N/A     48  41  76 NW5       30.10R
GONZALES*        N/A     48  43  81 N7        30.07R
HAMMOND*       SUNNY     50  43  76 NW6       30.07R
HOUMA*         MOSUNNY   64  48  55 N7        30.05R
PORT FOURCHON* CLOUDY    55  48  76 N15       30.06R

$$

MSZ070-080>082-271400-
SOUTHERN MISSISSIPPI

CITY           SKY/WX    TMP DP  RH WIND       PRES   REMARKS
MCCOMB         SUNNY     45  40  82 N8        30.05R
GULFPORT       CLOUDY    52  45  77 NW13      29.98R
BILOXI         CLOUDY    52  45  77 N14       29.97S
PASCAGOULA     CLOUDY    51  45  79 N15G21    29.96R
STENNIS ARPT*  PTSUNNY   52  41  66 N12G17    30.01R

$$

COASTAL OBSERVATIONS
LAKE AND NEARSHORE STATIONS

STATION/POSITION TIME  TEMP    WIND        PRES    WAVE
                       AIR SEA DIR/SP/G            HT/PER
                 (UTC) (F)     (DEG/KT/KT) (MB)    (FT/S)
PASCAGOULA       1200   53     350/ 10/ 17 1013.7
WAVELAND YACHT   1200   52 65  350/ 16/ 20 1015.2
GRAND ISLE       1200   56 69  340/ 18/ 24 1015.2
SOUTHWEST PASS   1200   56 51  350/ 20/ 24 1015.1
NEW CANAL        1200   54     350/ 10/ 19 1016.9
SHELL BEACH      1200   54 68  330/ 21/ 25 1015.3

OFFSHORE STATIONS

STATION/POSITION TIME  TEMP    WIND        PRES    WAVE
                       AIR SEA DIR/SP/G            HT/PER
                 (UTC) (F)     (DEG/KT/KT) (MB)    (FT/S)
64 S DAUPHIN ISL 1250   61 72  330/ 23/ 29 1013.0    5/ 5

$$




USA.gov is the U.S. government's official web portal to all federal, state and local government web resources and services.